User: anonymous   Login
Location: Theydon Bois
(51.6750°N, 0.1050°E)
Time: 08:14:01
(UTC+01:00)
Language:

SL-16 R/B - Orbit

View from above orbital plane
View from above orbital plane
View from above satellite
View from above satellite

Ground track
Ground track

The orbit data is extracted from the following two-line orbital elements,

1 28353U 04021B   18170.88557141 -.00000308  00000-0 -13661-3 0  9997
2 28353  71.0000  27.3305 0005644 335.5017  24.5836 14.14210174724145
Epoch (UTC): 19 June 2018 21:15:13
Eccentricity: 0.0005644
inclination: 71.0000°
perigee height: 841 km
apogee height: 849 km
right ascension of ascending node: 27.3305°
argument of perigee: 335.5017°
revolutions per day: 14.14210174
mean anomaly at epoch: 24.5836°
orbit number at epoch: 72414

The dashed part of the orbit path shows where the satellite is in the earth's shadow,  

DLR